Time,TemperatureF,DewpointF,PressureIn,WindDirection,WindDirectionDegrees,WindSpeedMPH,WindSpeedGustMPH,Humidity,HourlyPrecipIn,Conditions,Clouds,dailyrainin,SolarRadiationWatts/m^2,SoftwareType,DateUTC
2013-05-24 00:22:00,50.0,50.0,-100.00,SE,144,5.0,6.0,100,0.00,,,0.00,0.000000,,2013-05-24 05:22:00,
2013-05-24 00:32:00,50.0,50.0,-100.00,SE,144,5.0,6.0,100,0.00,,,0.00,0.000000,,2013-05-24 05:32:00,
2013-05-24 00:42:00,50.0,50.0,-100.00,SE,144,5.0,6.0,100,0.00,,,0.00,0.000000,,2013-05-24 05:42:00,
2013-05-24 00:52:00,50.0,50.0,-100.00,SE,144,5.0,6.0,100,0.00,,,0.00,0.000000,,2013-05-24 05:52:00,
2013-05-24 01:21:00,51.0,51.0,-100.00,East,92,7.0,11.0,100,0.00,,,0.00,0.000000,,2013-05-24 06:21:00,
2013-05-24 01:32:00,51.0,51.0,-100.00,East,92,7.0,11.0,100,0.00,,,0.00,0.000000,,2013-05-24 06:32:00,
2013-05-24 01:42:00,51.0,51.0,-100.00,East,92,7.0,11.0,100,0.00,,,0.00,0.000000,,2013-05-24 06:42:00,
2013-05-24 01:52:00,51.0,51.0,-100.00,East,92,7.0,11.0,100,0.00,,,0.00,0.000000,,2013-05-24 06:52:00,
2013-05-24 02:22:00,49.0,49.0,-100.00,SSE,152,6.0,8.0,100,0.00,,,0.00,0.000000,,2013-05-24 07:22:00,
2013-05-24 02:32:00,49.0,49.0,-100.00,SSE,152,6.0,8.0,100,0.00,,,0.00,0.000000,,2013-05-24 07:32:00,
2013-05-24 02:42:00,49.0,49.0,-100.00,SSE,152,6.0,8.0,100,0.00,,,0.00,0.000000,,2013-05-24 07:42:00,
2013-05-24 02:52:00,49.0,49.0,-100.00,SSE,152,6.0,8.0,100,0.00,,,0.00,0.000000,,2013-05-24 07:52:00,
2013-05-24 03:22:00,47.0,47.0,-100.00,SE,143,5.0,7.0,100,0.00,,,0.00,0.000000,,2013-05-24 08:22:00,
2013-05-24 03:33:00,47.0,47.0,-100.00,SE,143,5.0,7.0,100,0.00,,,0.00,0.000000,,2013-05-24 08:33:00,
2013-05-24 03:42:00,47.0,47.0,-100.00,SE,143,5.0,7.0,100,0.00,,,0.00,0.000000,,2013-05-24 08:42:00,
2013-05-24 03:52:00,47.0,47.0,-100.00,SE,143,5.0,7.0,100,0.00,,,0.00,0.000000,,2013-05-24 08:52:00,
2013-05-24 04:21:00,47.0,47.0,-100.00,SE,132,5.0,6.0,100,0.00,,,0.00,0.000000,,2013-05-24 09:21:00,
2013-05-24 04:32:00,47.0,47.0,-100.00,SE,132,5.0,6.0,100,0.00,,,0.00,0.000000,,2013-05-24 09:32:00,
2013-05-24 04:42:00,47.0,47.0,-100.00,SE,132,5.0,6.0,100,0.00,,,0.00,0.000000,,2013-05-24 09:42:00,
2013-05-24 04:52:00,47.0,47.0,-100.00,SE,132,5.0,6.0,100,0.00,,,0.00,0.000000,,2013-05-24 09:52:00,
2013-05-24 05:22:00,52.0,52.0,-100.00,SE,142,8.0,11.0,100,0.00,,,0.00,0.000000,,2013-05-24 10:22:00,
2013-05-24 05:33:00,52.0,52.0,-100.00,SE,142,8.0,11.0,100,0.00,,,0.00,0.000000,,2013-05-24 10:33:00,
2013-05-24 05:42:00,52.0,52.0,-100.00,SE,142,8.0,11.0,100,0.00,,,0.00,0.000000,,2013-05-24 10:42:00,
2013-05-24 05:52:00,52.0,52.0,-100.00,SE,142,8.0,11.0,100,0.00,,,0.00,0.000000,,2013-05-24 10:52:00,
2013-05-24 06:22:00,53.0,53.0,-100.00,SE,135,12.0,15.0,100,0.00,,,0.00,0.000000,,2013-05-24 11:22:00,
2013-05-24 06:32:00,53.0,53.0,-100.00,SE,135,12.0,15.0,100,0.00,,,0.00,0.000000,,2013-05-24 11:32:00,
2013-05-24 06:42:00,53.0,53.0,-100.00,SE,135,12.0,15.0,100,0.00,,,0.00,0.000000,,2013-05-24 11:42:00,
2013-05-24 06:51:00,53.0,53.0,-100.00,SE,135,12.0,15.0,100,0.00,,,0.00,0.000000,,2013-05-24 11:51:00,
2013-05-24 07:22:00,54.0,54.0,-100.00,SE,144,12.0,19.0,100,0.00,,,0.00,0.000000,,2013-05-24 12:22:00,
2013-05-24 07:32:00,54.0,54.0,-100.00,SE,144,12.0,19.0,100,0.00,,,0.00,0.000000,,2013-05-24 12:32:00,
2013-05-24 07:42:00,54.0,54.0,-100.00,SE,144,12.0,19.0,100,0.00,,,0.00,0.000000,,2013-05-24 12:42:00,
2013-05-24 07:52:00,54.0,54.0,-100.00,SE,144,12.0,19.0,100,0.00,,,0.00,0.000000,,2013-05-24 12:52:00,
2013-05-24 08:21:00,55.0,54.0,-100.00,SE,137,16.0,23.0,95,0.00,,,0.00,0.000000,,2013-05-24 13:21:00,
2013-05-24 08:32:00,55.0,54.0,-100.00,SE,137,16.0,23.0,95,0.00,,,0.00,0.000000,,2013-05-24 13:32:00,
2013-05-24 08:42:00,55.0,54.0,-100.00,SE,137,16.0,23.0,95,0.00,,,0.00,0.000000,,2013-05-24 13:42:00,
2013-05-24 08:52:00,55.0,54.0,-100.00,SE,137,16.0,23.0,95,0.00,,,0.00,0.000000,,2013-05-24 13:52:00,
2013-05-24 09:21:00,58.0,54.0,-100.00,SE,139,20.0,28.0,85,0.00,,,0.00,0.000000,,2013-05-24 14:21:00,
2013-05-24 09:32:00,58.0,54.0,-100.00,SE,139,20.0,28.0,85,0.00,,,0.00,0.000000,,2013-05-24 14:32:00,
2013-05-24 09:42:00,58.0,54.0,-100.00,SE,139,20.0,28.0,85,0.00,,,0.00,0.000000,,2013-05-24 14:42:00,
2013-05-24 09:52:00,58.0,54.0,-100.00,SE,139,20.0,28.0,85,0.00,,,0.00,0.000000,,2013-05-24 14:52:00,
2013-05-24 10:21:00,62.0,54.0,-100.00,SE,144,19.0,28.0,76,0.00,,,0.00,0.000000,,2013-05-24 15:21:00,
2013-05-24 10:33:00,62.0,54.0,-100.00,SE,144,19.0,28.0,76,0.00,,,0.00,0.000000,,2013-05-24 15:33:00,
2013-05-24 10:43:00,62.0,54.0,-100.00,SE,144,19.0,28.0,76,0.00,,,0.00,0.000000,,2013-05-24 15:43:00,
2013-05-24 10:52:00,62.0,54.0,-100.00,SE,144,19.0,28.0,76,0.00,,,0.00,0.000000,,2013-05-24 15:52:00,
2013-05-24 11:22:00,63.0,57.0,-100.00,SSE,159,15.0,26.0,80,0.00,,,0.00,0.000000,,2013-05-24 16:22:00,
2013-05-24 11:32:00,63.0,57.0,-100.00,SSE,159,15.0,26.0,80,0.00,,,0.00,0.000000,,2013-05-24 16:32:00,
2013-05-24 11:42:00,63.0,57.0,-100.00,SSE,159,15.0,26.0,80,0.00,,,0.00,0.000000,,2013-05-24 16:42:00,
2013-05-24 11:52:00,63.0,57.0,-100.00,SSE,159,15.0,26.0,80,0.00,,,0.00,0.000000,,2013-05-24 16:52:00,
2013-05-24 12:22:00,65.0,59.0,-100.00,SSE,153,15.0,21.0,80,0.00,,,0.00,0.000000,,2013-05-24 17:22:00,
2013-05-24 12:32:00,65.0,59.0,-100.00,SSE,153,15.0,21.0,80,0.00,,,0.00,0.000000,,2013-05-24 17:32:00,
2013-05-24 12:42:00,65.0,59.0,-100.00,SSE,153,15.0,21.0,80,0.00,,,0.00,0.000000,,2013-05-24 17:42:00,
2013-05-24 12:52:00,65.0,59.0,-100.00,SSE,153,15.0,21.0,80,0.00,,,0.00,0.000000,,2013-05-24 17:52:00,
2013-05-24 13:21:00,67.0,58.0,-100.00,SE,145,14.0,23.0,72,0.00,,,0.00,0.000000,,2013-05-24 18:21:00,
2013-05-24 13:32:00,67.0,58.0,-100.00,SE,145,14.0,23.0,72,0.00,,,0.00,0.000000,,2013-05-24 18:32:00,
2013-05-24 13:42:00,67.0,58.0,-100.00,SE,145,14.0,23.0,72,0.00,,,0.00,0.000000,,2013-05-24 18:42:00,
2013-05-24 13:51:00,67.0,58.0,-100.00,SE,145,14.0,23.0,72,0.00,,,0.00,0.000000,,2013-05-24 18:51:00,
2013-05-24 14:21:00,72.0,59.0,-100.00,SE,142,20.0,27.0,63,0.00,,,0.00,0.000000,,2013-05-24 19:21:00,
2013-05-24 14:32:00,72.0,59.0,-100.00,SE,142,20.0,27.0,63,0.00,,,0.00,0.000000,,2013-05-24 19:32:00,
2013-05-24 14:42:00,72.0,59.0,-100.00,SE,142,20.0,27.0,63,0.00,,,0.00,0.000000,,2013-05-24 19:42:00,
2013-05-24 14:52:00,72.0,59.0,-100.00,SE,142,20.0,27.0,63,0.00,,,0.00,0.000000,,2013-05-24 19:52:00,
2013-05-24 15:21:00,74.0,61.0,-100.00,SSE,149,22.0,31.0,64,0.00,,,0.00,0.000000,,2013-05-24 20:21:00,
2013-05-24 15:32:00,74.0,61.0,-100.00,SSE,149,22.0,31.0,64,0.00,,,0.00,0.000000,,2013-05-24 20:32:00,
2013-05-24 15:42:00,74.0,61.0,-100.00,SSE,149,22.0,31.0,64,0.00,,,0.00,0.000000,,2013-05-24 20:42:00,
2013-05-24 15:52:00,74.0,61.0,-100.00,SSE,149,22.0,31.0,64,0.00,,,0.00,0.000000,,2013-05-24 20:52:00,
2013-05-24 16:21:00,70.0,59.0,-100.00,SSE,154,20.0,31.0,67,0.00,,,0.00,0.000000,,2013-05-24 21:21:00,
2013-05-24 16:33:00,70.0,59.0,-100.00,SSE,154,20.0,31.0,67,0.00,,,0.00,0.000000,,2013-05-24 21:33:00,
2013-05-24 16:42:00,70.0,59.0,-100.00,SSE,154,20.0,31.0,67,0.00,,,0.00,0.000000,,2013-05-24 21:42:00,
2013-05-24 16:53:00,70.0,59.0,-100.00,SSE,154,20.0,31.0,67,0.00,,,0.00,0.000000,,2013-05-24 21:53:00,
2013-05-24 17:22:00,69.0,61.0,-100.00,SSE,158,12.0,27.0,75,0.00,,,0.00,0.000000,,2013-05-24 22:22:00,
2013-05-24 17:33:00,69.0,61.0,-100.00,SSE,158,12.0,27.0,75,0.00,,,0.00,0.000000,,2013-05-24 22:33:00,
2013-05-24 17:42:00,69.0,61.0,-100.00,SSE,158,12.0,27.0,75,0.00,,,0.00,0.000000,,2013-05-24 22:42:00,
2013-05-24 17:52:00,69.0,61.0,-100.00,SSE,158,12.0,27.0,75,0.00,,,0.00,0.000000,,2013-05-24 22:52:00,
2013-05-24 18:22:00,69.0,62.0,-100.00,SSE,163,17.0,29.0,79,0.00,,,0.00,0.000000,,2013-05-24 23:22:00,
2013-05-24 18:32:00,69.0,62.0,-100.00,SSE,163,17.0,29.0,79,0.00,,,0.00,0.000000,,2013-05-24 23:32:00,
2013-05-24 18:42:00,69.0,62.0,-100.00,SSE,163,17.0,29.0,79,0.00,,,0.00,0.000000,,2013-05-24 23:42:00,
2013-05-24 18:52:00,69.0,62.0,-100.00,SSE,163,17.0,29.0,79,0.00,,,0.00,0.000000,,2013-05-24 23:52:00,
2013-05-24 19:21:00,68.0,65.0,-100.00,SSE,164,24.0,40.0,91,0.01,,,0.01,0.000000,,2013-05-25 00:21:00,
2013-05-24 19:32:00,68.0,65.0,-100.00,SSE,164,24.0,40.0,91,0.01,,,0.01,0.000000,,2013-05-25 00:32:00,
2013-05-24 19:42:00,68.0,65.0,-100.00,SSE,164,24.0,40.0,91,0.01,,,0.01,0.000000,,2013-05-25 00:42:00,
2013-05-24 19:51:00,68.0,65.0,-100.00,SSE,164,24.0,40.0,91,0.01,,,0.01,0.000000,,2013-05-25 00:51:00,
2013-05-24 20:22:00,70.0,66.0,-100.00,SSE,165,18.0,32.0,88,0.00,,,0.01,0.000000,,2013-05-25 01:22:00,
2013-05-24 20:32:00,70.0,66.0,-100.00,SSE,165,18.0,32.0,88,0.00,,,0.01,0.000000,,2013-05-25 01:32:00,
2013-05-24 20:42:00,70.0,66.0,-100.00,SSE,165,18.0,32.0,88,0.00,,,0.01,0.000000,,2013-05-25 01:42:00,
2013-05-24 20:52:00,70.0,66.0,-100.00,SSE,165,18.0,32.0,88,0.00,,,0.01,0.000000,,2013-05-25 01:52:00,
2013-05-24 21:21:00,69.0,66.0,-100.00,SSE,159,16.0,28.0,90,0.00,,,0.01,0.000000,,2013-05-25 02:21:00,
2013-05-24 21:32:00,69.0,66.0,-100.00,SSE,159,16.0,28.0,90,0.00,,,0.01,0.000000,,2013-05-25 02:32:00,
2013-05-24 21:42:00,69.0,66.0,-100.00,SSE,159,16.0,28.0,90,0.00,,,0.01,0.000000,,2013-05-25 02:42:00,
2013-05-24 21:51:00,69.0,66.0,-100.00,SSE,159,16.0,28.0,90,0.00,,,0.01,0.000000,,2013-05-25 02:51:00,
2013-05-24 22:21:00,68.0,67.0,-100.00,SSE,161,14.0,26.0,95,0.00,,,0.01,0.000000,,2013-05-25 03:21:00,
2013-05-24 22:32:00,68.0,67.0,-100.00,SSE,161,14.0,26.0,95,0.00,,,0.01,0.000000,,2013-05-25 03:32:00,
2013-05-24 22:43:00,68.0,67.0,-100.00,SSE,161,14.0,26.0,95,0.00,,,0.01,0.000000,,2013-05-25 03:43:00,
2013-05-24 22:53:00,68.0,67.0,-100.00,SSE,161,14.0,26.0,95,0.00,,,0.01,0.000000,,2013-05-25 03:53:00,
2013-05-24 23:23:00,67.0,66.0,-100.00,SSE,153,12.0,20.0,96,0.00,,,0.01,0.000000,,2013-05-25 04:23:00,
2013-05-24 23:33:00,67.0,66.0,-100.00,SSE,153,12.0,20.0,96,0.00,,,0.01,0.000000,,2013-05-25 04:33:00,
2013-05-24 23:43:00,67.0,66.0,-100.00,SSE,153,12.0,20.0,96,0.00,,,0.01,0.000000,,2013-05-25 04:43:00,
2013-05-24 23:52:00,67.0,66.0,-100.00,SSE,153,12.0,20.0,96,0.00,,,0.01,0.000000,,2013-05-25 04:52:00,